Temperature
8 9 9 8 8 9 8 7 7 8 9 9 9 9 9 8 7 7 6 5 5 5 4 4 4 4 4 4 4 4 5 5 5 5 5 5 5 5 5 5 5 5 5 5
7 9 9 8 8 9 8 9 8 9 9 10 10 10 9 8 7 7 6 6 5 5 4 4 4 4 4 4 4 4 5 5 5 4 4 4 5 4 4 4 4 4 4 4
6 9 8 7 9 9 9 9 9 8 9 10 9 9 9 8 7 7 6 6 5 5 5 4 4 4 4 4 4 4 4 4 4 4 4 4 4 4 4 4 4 4 3 3
6 7 6 9 10 10 10 9 10 9 10 9 9 9 9 8 8 7 7 6 6 5 5 5 4 4 4 4 4 4 4 4 4 4 3 3 3 3 3 3 3 3 3 3
6 6 8 10 9 9 9 9 10 9 9 10 9 9 8 8 8 7 7 6 6 5 5 5 5 4 4 4 4 4 4 3 3 3 3 3 3 3 3 3 2 2 2 2
6 6 7 10 9 10 9 8 10 10 9 9 8 6 7 8 8 7 7 6 6 6 5 5 5 4 4 4 4 4 3 3 3 3 3 3 3 2 2 2 2 2 2 1
5 6 7 9 8 8 8 9 9 10 9 9 7 7 8 8 7 7 7 6 6 6 5 5 5 4 4 4 4 3 3 3 3 3 2 2 2 2 2 2 1 1 1 1
5 5 6 8 7 7 8 9 9 9 9 8 8 8 8 7 7 7 6 6 6 5 5 5 5 4 4 4 4 3 3 3 3 2 2 2 2 2 1 1 1 1 1 1
7 7 9 9 9 9 9 9 9 8 8 8 7 7 7 7 7 6 6 6 6 5 5 5 5 4 4 4 3 3 3 3 2 2 2 2 1 1 1 1 1 0 0 0
6 7 9 10 10 9 9 8 8 8 7 7 7 7 7 6 6 6 6 6 6 5 5 5 4 4 4 4 3 3 3 3 2 2 2 1 1 1 1 0 0 -0 -0 -1
5 6 8 9 9 9 9 8 8 7 7 7 6 6 6 6 6 6 6 6 5 5 5 5 4 4 4 3 3 3 3 2 2 2 1 1 1 0 0 0 -0 -0 -1 -1
6 7 7 8 9 9 8 8 7 7 7 6 6 6 6 6 6 6 5 5 5 5 5 4 4 4 3 3 3 3 2 2 2 1 1 1 0 0 -0 -1 -1 -1 -1 -2
8 8 8 8 8 8 7 7 7 6 6 6 6 6 6 5 5 5 5 5 5 5 5 4 4 4 3 3 3 2 2 2 2 1 1 0 0 -0 -0 -1 -1 -1 -2 -2
7 7 7 7 7 7 6 6 6 6 6 5 5 5 5 5 5 5 5 5 5 5 4 4 4 4 3 3 2 2 2 1 1 1 1 0 -0 -1 -1 -1 -1 -1 -2 -2
7 6 6 6 6 6 6 6 5 5 5 5 5 5 5 4 5 5 5 4 4 4 4 4 4 3 3 3 2 2 1 1 1 1 0 -0 -0 -1 -1 -2 -2 -2 -2 -3
6 6 5 5 5 5 5 5 5 5 5 5 4 4 4 4 4 4 4 4 4 4 4 3 3 3 3 2 2 2 1 1 0 0 -0 -0 -1 -1 -2 -2 -2 -3 -3 -3
5 4 4 5 5 5 5 5 5 5 5 4 4 4 4 4 4 4 4 4 3 3 3 3 3 3 2 2 2 1 1 0 0 -0 -0 -1 -1 -2 -2 -3 -3 -3 -3 -4
5 5 4 4 5 4 4 4 4 4 4 4 4 4 3 3 3 4 4 3 3 3 3 3 2 2 2 2 1 1 0 0 -0 -0 -1 -1 -2 -2 -2 -3 -3 -4 -4 -4
4 4 4 4 4 4 4 4 4 4 4 4 4 3 3 3 3 3 3 3 3 3 3 2 2 2 1 1 1 0 -0 -0 -1 -1 -1 -2 -2 -2 -3 -3 -4 -4 -4 -5
4 4 4 4 4 4 4 4 4 4 4 3 3 3 3 3 3 3 2 2 3 2 2 2 1 1 1 1 0 -0 -0 -1 -1 -1 -2 -2 -2 -3 -3 -4 -4 -4 -5 -5
4 4 4 4 4 4 4 4 4 4 3 3 3 3 3 3 3 2 2 2 2 2 1 1 1 1 1 0 -0 -1 -1 -1 -1 -2 -2 -2 -3 -3 -4 -4 -4 -5 -5 -6
4 4 4 4 4 4 4 3 3 3 3 3 3 3 2 2 2 2 2 2 2 1 1 1 1 0 0 -0 -1 -1 -1 -2 -2 -2 -3 -3 -3 -4 -4 -4 -5 -5 -6 -6
4 4 4 4 4 3 3 3 3 3 3 3 3 2 2 2 2 2 2 2 1 1 1 1 0 -0 -1 -1 -1 -1 -2 -2 -2 -3 -3 -3 -4 -4 -4 -5 -5 -6 -6 -6
4 4 4 3 3 3 3 3 3 3 3 2 2 2 2 2 2 1 1 1 1 0 0 -0 -0 -1 -1 -1 -2 -2 -2 -3 -3 -3 -4 -4 -4 -5 -5 -5 -6 -6 -6 -7
4 4 3 3 3 3 3 3 2 2 2 2 2 2 1 1 1 1 1 1 0 -0 -0 -1 -1 -1 -1 -2 -2 -2 -3 -3 -3 -4 -4 -4 -5 -5 -5 -6 -6 -6 -6 -7
3 3 3 3 3 3 2 2 2 2 2 2 2 1 1 1 1 1 0 0 0 -0 -1 -1 -1 -2 -2 -2 -2 -3 -3 -4 -4 -4 -5 -5 -5 -6 -6 -6 -6 -6 -7 -7
3 3 3 2 3 2 2 2 2 2 2 1 1 1 1 1 1 0 0 0 -0 -1 -1 -1 -2 -2 -3 -3 -3 -4 -4 -4 -5 -5 -5 -5 -6 -6 -6 -6 -7 -7 -7 -7
Wind_Speed
9 10 8 9 10 8 9 8 6 6 6 5 3 3 3 3 3 2 1 0 1 1 2 2 3 3 3 3 4 3 4 4 4 4 4 4 3 3 3 3 2 2 2 2
8 9 8 11 11 11 10 10 11 10 10 5 3 3 3 3 3 3 2 2 1 0 1 2 2 3 3 4 4 4 4 4 4 4 4 4 4 4 3 3 3 3 3 3
5 5 6 8 9 10 7 6 7 9 6 2 2 3 4 4 4 4 3 2 2 1 1 1 1 2 2 3 3 3 3 4 4 4 4 4 4 4 4 3 3 3 4 4
5 6 6 5 1 3 6 8 8 7 5 3 3 3 3 4 5 4 3 2 2 1 1 1 1 1 1 2 2 2 3 3 3 3 3 3 4 4 4 4 4 3 3 3
3 5 9 4 3 4 4 5 6 8 6 4 1 0 3 4 5 5 4 3 2 2 2 2 1 1 1 1 2 2 3 3 3 3 3 4 4 4 3 3 4 3 3 4
4 4 6 3 3 3 2 5 3 5 4 3 4 2 4 3 4 4 4 3 3 3 2 2 1 1 1 1 1 2 2 2 2 2 3 3 3 3 3 3 3 4 4 4
7 6 8 2 4 5 3 5 2 3 3 4 5 4 2 2 3 3 4 4 4 4 3 2 2 2 1 1 0 1 1 1 2 2 2 2 2 3 3 3 3 3 4 4
6 7 9 5 6 6 5 1 2 2 2 3 3 2 2 3 3 4 4 4 5 4 3 3 3 3 2 2 1 1 1 1 1 1 1 2 2 2 2 3 3 3 3 3
8 9 4 8 8 5 2 2 2 2 2 3 4 4 3 4 4 5 5 5 5 5 4 4 4 4 3 3 2 2 1 1 1 1 1 1 1 2 2 2 2 2 3 3
7 10 8 8 9 7 6 6 4 3 4 4 5 5 4 4 4 5 5 5 5 5 5 5 5 5 5 3 3 3 2 2 1 1 1 1 1 1 1 1 1 2 2 3
9 10 10 10 10 9 7 6 5 5 5 6 6 6 6 5 5 5 5 5 5 6 6 6 5 5 5 4 4 4 3 2 2 2 1 1 1 0 0 0 0 1 1 1
10 8 6 5 3 4 5 6 7 7 6 6 6 7 6 6 5 5 5 5 6 6 6 6 6 6 5 5 5 5 4 3 2 2 2 1 1 0 1 1 2 2 2 2
13 8 6 5 3 3 4 5 5 6 7 7 6 7 6 6 5 5 6 7 7 7 7 6 6 6 6 6 6 5 5 4 3 3 2 2 2 1 1 2 2 2 3 4
12 9 10 8 8 7 6 5 4 5 6 6 6 5 5 5 5 6 7 7 7 6 6 6 6 6 6 6 6 5 5 4 4 3 3 3 2 2 2 2 2 2 3 4
11 10 10 7 6 5 4 4 5 6 6 6 5 5 5 6 7 6 6 5 5 6 6 6 6 6 5 6 6 6 5 4 3 3 3 3 2 2 2 2 2 2 2 3
8 9 9 9 9 8 7 7 8 8 7 6 6 6 6 6 6 5 5 5 6 7 7 6 7 6 6 6 6 5 5 7 5 3 3 3 3 2 2 2 2 2 2 2
9 9 9 9 10 9 8 8 8 8 7 6 6 5 4 4 5 5 5 5 6 6 6 7 6 5 6 7 6 5 4 5 7 4 3 3 3 3 3 3 3 3 2 3
11 11 9 8 8 8 8 8 8 7 7 6 5 5 5 6 7 6 5 4 4 5 5 6 6 5 6 6 6 5 5 5 5 5 4 4 4 3 3 3 3 3 2 3
9 9 8 8 8 7 7 7 7 7 6 6 6 6 6 7 6 5 4 4 5 6 6 5 7 6 6 7 6 5 5 5 5 4 4 5 4 3 3 3 3 3 3 2
7 7 7 6 6 6 6 6 6 5 5 6 6 5 6 6 5 5 5 6 7 5 5 5 5 5 6 6 7 5 5 6 5 5 4 4 4 4 4 3 3 3 3 2
7 7 7 6 6 6 6 5 5 6 5 5 6 7 6 6 5 5 5 6 5 5 5 7 5 5 5 6 7 5 5 5 5 5 5 5 5 4 4 4 3 3 3 3
5 5 6 6 5 5 5 5 5 5 5 5 6 6 5 5 5 5 6 6 4 5 4 4 4 6 7 7 5 5 5 5 5 4 4 4 4 4 4 4 3 3 3 3
4 5 5 5 5 5 4 4 5 5 6 6 6 7 7 6 5 5 5 4 4 6 4 4 6 9 9 5 4 5 5 5 5 5 5 4 4 4 4 4 3 3 3 3
4 4 4 4 4 4 5 5 5 5 5 6 6 6 6 5 4 5 4 5 6 6 4 6 9 9 8 4 4 4 5 5 5 4 4 4 4 4 4 4 4 3 3 4
5 4 4 5 6 6 6 5 4 4 5 4 5 5 5 5 5 4 3 5 7 6 4 6 9 9 5 4 4 5 5 5 5 5 4 4 4 4 4 4 4 4 4 4
5 6 6 7 6 5 4 4 4 4 4 4 4 4 4 4 4 4 3 4 6 6 5 4 5 6 4 4 5 5 4 5 5 5 5 5 5 4 4 4 5 4 4 4
5 5 5 5 5 5 5 5 6 6 6 6 5 4 4 4 4 4 4 4 4 4 4 4 4 4 4 4 4 4 4 4 4 4 4 4 4 4 4 5 4 4 4 4
Wind_Direction
276 275 268 260 259 245 228 228 244 271 281 266 247 226 214 200 188 205 227 242 320 345 358 360 10 16 25 27 26 29 38 37 28 25 28 28 27 24 25 31 19 10 12 358
281 254 251 260 253 243 239 236 245 263 275 257 217 188 198 195 193 215 226 216 201 316 10 5 13 18 21 23 24 29 34 32 27 28 30 28 24 25 26 28 23 30 31 28
285 299 302 270 239 219 219 216 223 243 249 230 220 212 212 211 207 213 217 212 189 185 168 71 31 24 22 16 21 35 35 31 29 29 33 23 20 27 26 27 35 38 34 30
289 314 265 245 119 172 220 238 229 243 256 237 233 221 218 207 200 203 199 197 183 160 124 100 76 48 35 33 43 49 46 38 34 35 37 30 33 33 28 30 34 33 30 27
280 285 277 241 197 183 209 256 222 231 243 233 182 340 258 200 189 191 183 175 168 156 144 128 106 83 64 45 47 50 46 39 33 35 39 38 35 27 25 32 31 29 33 33
264 268 262 257 132 106 100 269 219 196 218 203 147 210 246 179 163 168 164 160 157 150 140 135 146 132 107 78 63 54 46 39 35 42 47 45 35 28 26 35 32 31 35 34
235 251 267 228 142 128 181 245 158 166 197 188 191 208 190 149 164 170 171 169 161 159 162 172 164 144 149 151 176 109 79 61 51 52 51 52 45 38 36 39 37 35 36 29
204 226 251 171 151 196 226 177 168 185 198 208 213 215 178 176 185 185 183 179 170 169 179 178 165 158 180 211 204 142 119 97 70 61 53 48 56 46 43 46 41 30 29 19
211 224 223 180 204 215 176 230 223 217 223 213 225 235 222 209 204 203 196 192 182 181 188 186 178 174 199 216 175 159 157 173 155 107 85 72 67 53 43 42 42 21 18 10
262 259 251 231 225 223 215 225 235 236 236 222 230 234 234 223 212 208 203 199 191 188 195 200 193 191 200 195 175 170 188 201 175 146 123 82 69 62 64 40 33 19 8 355
252 266 273 258 237 227 221 216 224 231 230 228 230 235 233 231 223 213 207 200 195 199 206 208 197 197 194 185 177 186 198 202 185 171 166 152 128 120 128 98 90 29 358 340
241 233 231 256 230 198 205 218 222 228 236 233 228 234 233 232 225 216 210 203 203 206 210 211 200 199 193 186 182 187 198 201 194 184 176 171 176 312 13 8 23 20 3 345
246 258 263 276 260 229 230 232 229 230 234 236 232 229 230 234 228 218 212 206 209 210 210 208 205 203 195 186 184 192 199 197 193 187 181 187 195 204 259 306 314 320 328 335
245 253 259 251 248 241 233 227 230 240 239 236 236 233 231 233 229 223 221 215 211 209 208 205 206 210 196 182 184 196 199 199 193 194 193 194 200 211 222 250 287 295 299 312
241 234 239 244 239 233 224 223 234 238 237 237 233 229 228 231 232 231 227 214 206 210 211 207 211 214 190 181 185 195 197 195 192 194 196 194 195 204 224 240 258 278 297 311
243 242 240 240 240 237 232 231 235 239 234 232 230 229 230 232 236 234 224 205 204 216 217 212 217 212 187 183 186 194 200 197 190 192 194 193 196 207 223 236 251 266 276 291
234 239 234 235 236 234 231 231 233 235 230 228 229 228 227 231 239 237 229 217 215 221 217 214 217 203 188 186 187 194 194 195 193 192 197 200 203 209 216 226 241 256 264 279
229 232 229 229 229 230 233 231 229 226 226 225 218 216 220 223 233 237 230 221 225 236 229 215 205 195 192 189 188 190 190 191 190 195 198 203 209 209 213 222 235 251 266 280
232 232 234 233 228 222 223 223 220 219 217 210 209 217 224 229 232 231 218 211 220 236 234 209 198 193 193 193 187 188 189 190 192 195 196 210 215 213 214 220 232 242 255 268
235 231 228 228 220 214 218 216 211 212 210 202 206 219 232 235 227 220 216 225 227 224 209 195 193 195 193 192 188 187 189 191 194 196 197 202 209 214 216 223 229 237 245 255
232 230 225 221 219 215 212 206 202 209 209 203 207 219 228 233 222 211 218 243 243 209 196 195 194 196 192 189 187 188 191 193 196 199 201 206 210 213 217 222 229 236 244 253
229 227 225 218 211 216 210 199 196 200 205 214 219 219 221 228 225 225 227 229 228 200 194 198 197 199 196 188 184 189 192 194 197 196 199 205 210 214 218 221 228 237 242 248
229 225 219 214 211 211 203 199 198 200 209 216 219 220 220 220 211 215 244 227 202 200 197 205 205 199 195 186 183 187 188 191 195 196 201 204 207 211 217 221 226 232 237 244
224 221 218 210 193 199 217 220 208 207 214 222 223 220 214 217 228 222 216 206 201 204 209 208 201 198 192 183 183 186 188 191 193 195 199 201 204 210 215 217 224 230 234 241
219 215 210 202 209 220 224 218 211 215 217 226 232 226 214 206 214 217 199 198 200 201 208 204 199 196 187 180 185 189 189 193 194 193 195 200 206 212 218 218 221 228 234 238
214 217 219 216 217 218 209 204 216 222 215 226 235 224 210 202 200 201 199 200 202 201 199 191 187 188 183 186 189 189 189 196 203 201 198 201 205 210 216 220 224 229 234 238
217 219 222 228 225 214 207 208 217 225 218 215 224 217 201 194 191 194 197 197 195 191 186 182 180 181 184 187 187 186 186 187 190 193 196 200 205 212 217 221 226 229 232 237
Height
1486 1481 1480 1480 1479 1477 1480 1480 1480 1470 1465 1461 1461 1461 1462 1462 1462 1462 1462 1461 1460 1458 1457 1455 1454 1452 1450 1449 1448 1447 1446 1445 1444 1443 1443 1443 1442 1442 1442 1442 1442 1442 1441 1441
1485 1477 1475 1475 1471 1470 1471 1470 1469 1466 1463 1457 1457 1458 1459 1460 1460 1460 1460 1459 1459 1458 1456 1455 1453 1452 1451 1449 1448 1447 1446 1445 1444 1444 1443 1442 1442 1441 1441 1441 1440 1439 1439 1438
1487 1475 1475 1474 1461 1462 1462 1460 1462 1463 1459 1455 1456 1456 1457 1457 1458 1458 1458 1458 1457 1457 1456 1455 1453 1452 1451 1450 1449 1447 1446 1445 1444 1443 1442 1441 1440 1440 1439 1439 1438 1437 1437 1436
1490 1483 1483 1462 1453 1453 1456 1455 1455 1454 1453 1453 1454 1454 1455 1455 1455 1456 1456 1456 1456 1455 1454 1454 1453 1452 1451 1449 1448 1447 1446 1445 1444 1443 1442 1441 1440 1439 1438 1437 1436 1436 1435 1434
1490 1485 1471 1456 1453 1453 1455 1453 1449 1450 1450 1451 1451 1452 1452 1452 1453 1453 1454 1454 1454 1454 1453 1453 1452 1451 1450 1449 1448 1447 1445 1445 1444 1443 1441 1440 1439 1438 1438 1437 1436 1435 1434 1433
1489 1486 1476 1454 1452 1450 1454 1454 1445 1445 1447 1448 1450 1454 1451 1450 1450 1451 1452 1452 1452 1452 1451 1451 1451 1450 1449 1448 1447 1446 1445 1444 1443 1442 1441 1440 1439 1438 1437 1436 1435 1434 1433 1432
1490 1483 1466 1452 1451 1453 1459 1451 1444 1443 1444 1446 1447 1448 1448 1447 1448 1448 1449 1449 1449 1449 1449 1449 1449 1448 1447 1447 1446 1445 1445 1444 1443 1442 1441 1440 1439 1438 1436 1435 1434 1433 1432 1431
1480 1479 1466 1450 1450 1452 1448 1444 1442 1442 1443 1444 1444 1445 1445 1445 1445 1445 1446 1446 1446 1447 1447 1447 1447 1446 1446 1445 1445 1445 1444 1443 1442 1441 1440 1439 1438 1437 1435 1434 1433 1432 1431 1430
1463 1456 1445 1444 1443 1442 1442 1442 1441 1441 1441 1441 1442 1442 1442 1442 1442 1442 1442 1443 1443 1443 1443 1444 1444 1443 1443 1443 1443 1443 1442 1441 1440 1440 1439 1438 1437 1436 1435 1433 1432 1431 1430 1428
1454 1443 1439 1439 1438 1438 1438 1438 1438 1438 1438 1438 1438 1438 1438 1438 1438 1438 1439 1439 1440 1440 1440 1440 1440 1440 1440 1441 1440 1440 1440 1439 1438 1438 1437 1436 1436 1435 1434 1432 1431 1429 1428 1427
1448 1439 1436 1433 1432 1433 1433 1433 1434 1434 1434 1434 1434 1434 1434 1434 1434 1435 1435 1435 1436 1436 1436 1436 1436 1436 1437 1437 1437 1437 1436 1436 1436 1435 1435 1434 1434 1433 1432 1431 1430 1428 1427 1426
1438 1432 1432 1428 1428 1428 1428 1428 1429 1429 1429 1429 1429 1429 1430 1430 1430 1430 1431 1431 1431 1431 1432 1432 1432 1432 1433 1433 1433 1433 1433 1433 1432 1432 1432 1432 1431 1431 1430 1429 1428 1427 1425 1424
1427 1426 1426 1425 1424 1424 1424 1424 1425 1424 1424 1424 1424 1424 1425 1425 1425 1425 1426 1426 1426 1427 1427 1428 1428 1428 1429 1429 1429 1429 1429 1429 1429 1429 1429 1428 1428 1427 1427 1426 1426 1424 1423 1421
1421 1422 1420 1419 1419 1419 1420 1419 1420 1419 1419 1419 1419 1419 1419 1419 1420 1420 1420 1421 1422 1422 1423 1423 1423 1424 1424 1425 1425 1425 1425 1425 1425 1425 1425 1425 1425 1424 1423 1422 1422 1420 1419 1418
1414 1414 1413 1413 1413 1413 1413 1414 1414 1413 1413 1413 1414 1414 1414 1414 1414 1415 1416 1416 1417 1417 1417 1418 1418 1419 1420 1420 1420 1420 1421 1421 1421 1421 1421 1421 1421 1420 1420 1419 1418 1416 1415 1414
1406 1406 1406 1406 1406 1407 1407 1408 1408 1407 1407 1408 1408 1408 1409 1409 1410 1410 1410 1411 1411 1411 1412 1413 1413 1414 1415 1415 1415 1415 1416 1416 1417 1417 1417 1417 1417 1416 1416 1415 1414 1413 1411 1410
1400 1398 1399 1399 1399 1400 1401 1402 1402 1402 1402 1402 1403 1403 1404 1404 1405 1405 1405 1406 1406 1406 1407 1407 1408 1409 1409 1410 1410 1410 1411 1411 1412 1412 1412 1412 1412 1412 1411 1411 1410 1409 1408 1407
1391 1392 1392 1393 1393 1394 1394 1395 1396 1396 1397 1397 1398 1398 1399 1399 1400 1400 1401 1401 1401 1401 1402 1402 1403 1403 1404 1404 1405 1405 1406 1406 1407 1407 1407 1407 1407 1407 1407 1406 1405 1405 1403 1403
1384 1384 1385 1386 1387 1388 1388 1389 1390 1391 1392 1392 1393 1393 1394 1394 1395 1396 1396 1396 1396 1396 1397 1397 1397 1398 1398 1399 1399 1400 1401 1401 1402 1402 1402 1402 1402 1402 1402 1401 1401 1400 1399 1398
1377 1378 1379 1379 1381 1382 1382 1384 1385 1386 1387 1387 1388 1388 1389 1390 1390 1391 1391 1391 1391 1391 1392 1392 1392 1392 1393 1394 1394 1395 1396 1396 1397 1397 1397 1397 1397 1397 1397 1397 1396 1396 1395 1394
1373 1373 1374 1374 1375 1377 1378 1379 1380 1381 1382 1383 1383 1384 1384 1385 1386 1386 1386 1386 1387 1387 1387 1387 1387 1388 1388 1389 1389 1390 1391 1391 1392 1392 1392 1392 1393 1393 1392 1392 1392 1391 1391 1390
1370 1370 1371 1371 1372 1373 1374 1375 1376 1377 1378 1379 1379 1380 1380 1380 1381 1381 1381 1382 1382 1382 1382 1382 1382 1383 1383 1384 1384 1385 1386 1387 1387 1387 1388 1388 1388 1388 1388 1388 1387 1387 1386 1386
1367 1368 1368 1369 1370 1370 1371 1371 1372 1373 1374 1375 1375 1375 1375 1376 1376 1376 1376 1377 1377 1377 1377 1377 1378 1379 1379 1379 1380 1380 1381 1382 1382 1383 1383 1383 1383 1383 1383 1383 1383 1383 1382 1382
1365 1365 1365 1366 1367 1367 1367 1368 1369 1369 1370 1370 1370 1371 1371 1371 1371 1372 1372 1372 1372 1372 1372 1373 1373 1374 1374 1375 1376 1376 1377 1377 1378 1378 1379 1379 1379 1379 1379 1379 1378 1378 1378 1378
1361 1362 1362 1362 1363 1363 1364 1364 1365 1365 1365 1365 1365 1366 1366 1366 1367 1367 1367 1367 1367 1367 1368 1369 1369 1369 1370 1371 1371 1372 1372 1373 1373 1373 1374 1374 1374 1374 1374 1374 1374 1374 1374 1373
1357 1358 1358 1358 1358 1359 1359 1360 1360 1360 1360 1360 1360 1361 1361 1361 1362 1362 1362 1362 1362 1362 1363 1364 1364 1365 1365 1366 1367 1367 1368 1368 1368 1369 1369 1369 1369 1370 1370 1370 1370 1370 1369 1369
1353 1353 1353 1352 1352 1353 1354 1354 1354 1354 1354 1354 1354 1355 1356 1356 1356 1357 1357 1357 1357 1357 1358 1359 1359 1360 1361 1361 1362 1362 1363 1364 1364 1364 1365 1365 1365 1365 1365 1365 1366 1366 1365 1365